FW5184 Weather Reports


time (UTC)temp
C
wind
direction
speed
KPH
gust
KPH
rain 1hr
cm
rain 24hr
cm
rain mn
cm
humidity
%
barometer
mb
20260505225307 8 350 0.0 6.4 0.00 0.08 0.08 79 1005.2
20260505223846 8 284 0.0 4.8 0.00 0.08 0.08 79 1005.3
20260505222420 8 331 0.0 8.0 0.00 0.08 0.08 79 1005.6
20260505220956 8 311 0.0 4.8 0.00 0.08 0.08 81 1005.6
20260505215512 8 281 0.0 4.8 0.00 0.08 0.08 83 1005.7
20260505214001 8 327 0.0 3.2 0.00 0.08 0.08 84 1005.5
20260505212509 8 317 0.0 4.8 0.00 0.08 0.08 85 1005.4
20260505203637 9 222 3.2 9.7 0.00 0.08 0.08 85 1005.2
20260505202145 9 276 0.0 4.8 0.00 0.08 0.08 85 1005.1
20260505200624 9 254 3.2 9.7 0.08 0.08 0.08 83 1005.3
20260505195100 10 225 3.2 9.7 0.00 0.05 0.05 81 1004.9
20260505193515 10 263 0.0 0.0 0.08 0.03 0.03 79 1004.9
20260505190414 11 221 6.4 20.9 0.00 0.00 0.00 66 1004.3
20260505184933 12 219 6.4 20.9 0.00 0.00 0.00 64 1004.1
20260505183421 13 219 8.0 25.7 0.00 0.00 0.00 57 1003.8
20260505181839 13 263 8.0 25.7 0.00 0.00 0.00 57 1003.6
20260505174548 13 300 4.8 17.7 0.00 0.00 0.00 57 1003.1
20260505171543 13 227 6.4 20.9 0.00 0.00 0.00 60 1003.0
20260505164546 13 223 6.4 27.4 0.00 0.00 0.00 64 1002.5
20260505163121 13 355 6.4 27.4 0.00 0.00 0.00 62 1002.3
20260505161631 14 308 6.4 22.5 0.00 0.00 0.00 64 1002.4
20260505152904 13 116 6.4 17.7 0.00 0.00 0.00 70 1002.3
20260505151335 13 333 4.8 16.1 0.00 0.00 0.00 74 1001.4
20260505123753 14 236 8.0 22.5 0.00 0.00 0.00 81 998.8
20260505120556 14 229 8.0 17.7 0.00 0.00 0.00 81 998.1
20260505115123 14 246 8.0 17.7 0.00 0.00 0.00 81 998.0
20260505113624 13 199 6.4 16.1 0.00 0.00 0.00 82 998.2
20260505112037 13 205 8.0 17.7 0.00 0.00 0.00 81 998.2
20260505110611 13 232 9.7 19.3 0.00 0.00 0.00 81 997.9
20260505102049 13 260 8.0 20.9 0.00 0.00 0.00 80 997.4
20260505094939 13 211 8.0 19.3 0.00 0.00 0.00 79 997.3
20260505093456 13 198 9.7 19.3 0.00 0.00 0.00 79 996.8
20260505091948 13 177 8.0 19.3 0.00 0.00 0.00 79 996.5
20260505090440 14 196 11.3 24.1 0.00 0.00 0.00 78 996.9
20260505084852 14 244 8.0 24.1 0.00 0.00 0.00 77 996.9
20260505083416 15 195 9.7 25.7 0.00 0.00 0.00 76 996.7
20260505080317 15 223 11.3 29.0 0.00 0.00 0.00 75 996.7
20260505065816 15 238 12.9 27.4 0.00 0.00 0.00 74 997.5
20260505064236 15 199 11.3 29.0 0.00 0.00 0.00 74 997.2
20260505062805 15 214 12.9 29.0 0.00 0.00 0.00 74 997.5
20260505061308 15 229 12.9 25.7 0.00 0.00 0.00 75 997.7
20260505055739 15 206 9.7 20.9 0.00 0.00 0.00 75 997.8
20260505054207 15 202 9.7 25.7 0.00 0.00 0.00 75 998.1
20260505052703 15 221 11.3 24.1 0.00 0.00 0.00 74 998.3
20260505051215 15 184 11.3 22.5 0.00 0.00 0.00 72 998.1
20260505035503 16 191 11.3 25.7 0.00 0.00 0.00 69 998.1
20260505032439 16 221 16.1 32.2 0.00 0.00 0.00 69 998.2
20260505030951 16 190 14.5 29.0 0.00 0.00 0.00 68 998.4
20260505025442 16 184 9.7 27.4 0.00 0.00 0.00 69 998.7
20260505023905 16 195 8.0 14.5 0.00 0.00 0.00 67 998.8
20260505015157 17 200 8.0 24.1 0.00 0.00 0.00 60 999.1
20260505013610 17 155 8.0 24.1 0.00 0.00 0.00 57 998.9
20260505010433 17 242 4.8 14.5 0.00 0.00 0.00 54 998.8
20260505003242 17 215 8.0 24.1 0.00 0.00 0.00 51 998.7
20260504234620 18 237 12.9 25.7 0.00 0.00 0.00 46 999.1
20260504233047 18 191 11.3 24.1 0.00 0.00 0.00 45 999.4
20260504231619 18 201 14.5 25.7 0.00 0.00 0.00 44 999.5